CW0728 Weather Reports


time (UTC)temp
F
wind
direction
speed
knots
gust
knots
rain 1hr
in
rain 24hr
in
rain mn
in
humidity
%
barometer
mb
20260502123042 44 53 0.0 5.2 0.02 0.02 0.02 84 1011.2
20260502121519 44 100 0.0 6.1 0.02 0.02 0.02 84 1011.1
20260502114543 45 82 2.6 7.8 0.01 0.01 0.01 81 1011.8
20260502113035 45 54 0.0 1.7 0.00 0.00 0.00 78 1012.0
20260502111505 44 104 0.0 2.6 0.00 0.00 0.00 76 1011.8
20260502110051 44 88 0.0 0.9 0.00 0.00 0.00 78 1011.5
20260502104518 43 74 0.0 0.9 0.00 0.00 0.00 78 1011.4
20260502103101 43 101 0.0 0.0 0.00 0.00 0.00 78 1011.3
20260502101527 42 101 0.0 0.0 0.00 0.00 0.00 78 1011.0
20260502091510 40 103 0.0 1.7 0.00 0.00 0.00 77 1010.3
20260502090112 39 93 0.0 1.7 0.00 0.00 0.00 77 1010.6
20260502071527 38 331 0.0 0.0 0.00 0.00 0.00 79 1011.2
20260502070030 38 331 0.0 0.0 0.00 0.00 0.00 80 1011.2
20260502064604 38 331 0.0 0.0 0.00 0.00 0.00 80 1011.0
20260502063036 37 331 0.0 0.0 0.00 0.00 0.00 81 1010.8
20260502061501 37 331 0.0 0.0 0.00 0.00 0.00 81 1010.6
20260502060041 36 331 0.0 0.0 0.00 0.00 0.00 81 1010.6
20260502054529 36 331 0.0 0.0 0.00 0.00 0.00 81 1010.5
20260502053057 36 331 0.0 0.0 0.00 0.00 0.00 80 1010.4
20260502051533 36 331 0.0 0.0 0.00 0.00 0.00 79 1010.5
20260502050033 36 331 0.0 0.0 0.00 0.00 0.00 78 1010.5
20260502044557 37 331 0.0 0.0 0.00 0.00 0.00 77 1010.4
20260502043027 37 331 0.0 0.0 0.00 0.00 0.00 75 1010.4
20260502041502 38 331 0.0 0.0 0.00 0.00 0.00 74 1010.3
20260502040039 38 331 0.0 0.0 0.00 0.00 0.00 74 1010.2
20260502034521 39 331 0.0 0.0 0.00 0.00 0.00 73 1010.2
20260502033100 39 331 0.0 0.0 0.00 0.00 0.00 72 1010.2
20260502031540 40 331 0.0 0.0 0.00 0.00 0.00 69 1010.2
20260502030015 40 331 0.0 0.0 0.00 0.00 0.00 67 1010.0
20260502024605 41 331 0.0 0.0 0.00 0.00 0.00 66 1010.1
20260502023028 42 331 0.0 0.0 0.00 0.00 0.00 64 1010.0
20260502021502 42 331 0.0 0.0 0.00 0.00 0.00 62 1010.0
20260502020042 43 331 0.0 0.0 0.00 0.00 0.00 59 1010.1
20260502014517 44 331 0.0 0.0 0.00 0.00 0.00 59 1010.0
20260502013006 45 331 0.0 0.0 0.00 0.00 0.00 55 1010.0
20260502011546 46 331 0.0 0.0 0.00 0.00 0.00 54 1009.9
20260502010035 47 331 0.0 0.0 0.00 0.00 0.00 50 1009.6
20260502004508 49 331 0.0 0.0 0.00 0.00 0.00 48 1009.4
20260502003049 50 331 0.0 0.0 0.00 0.00 0.00 46 1009.2
20260502001524 52 331 0.0 0.0 0.00 0.00 0.00 42 1009.0
20260502000123 53 331 0.0 0.0 0.00 0.00 0.00 36 1008.7
20260501234536 54 335 0.0 4.3 0.00 0.00 0.00 35 1008.5
20260501233021 55 330 0.0 7.0 0.00 0.00 0.00 33 1008.2
20260501231507 56 86 0.0 4.3 0.00 0.00 0.00 32 1007.9
20260501230045 56 336 0.0 5.2 0.00 0.00 0.00 31 1007.7
20260501224515 57 312 1.7 7.0 0.00 0.00 0.00 30 1007.5
20260501223051 58 325 0.9 12.2 0.00 0.00 0.00 30 1007.2
20260501221536 59 315 1.7 7.0 0.00 0.00 0.00 30 1006.9
20260501220022 60 315 1.7 6.1 0.00 0.00 0.00 29 1006.7
20260501214553 61 167 2.6 10.4 0.00 0.00 0.00 28 1006.6
20260501213026 62 308 0.9 8.7 0.00 0.00 0.00 30 1006.4
20260501211503 63 273 0.0 8.7 0.00 0.00 0.00 29 1006.1
20260501210038 63 242 2.6 11.3 0.00 0.00 0.00 29 1006.0
20260501204528 63 17 0.9 7.0 0.00 0.00 0.00 33 1005.9
20260501203053 61 304 0.9 8.7 0.00 0.00 0.00 32 1005.8
20260501201538 62 324 1.7 8.7 0.00 0.00 0.00 32 1005.8
20260501200031 63 45 0.9 7.8 0.00 0.02 0.00 32 1005.7
20260501194600 62 5 2.6 13.0 0.00 0.02 0.00 34 1005.7
20260501193034 62 19 2.6 9.6 0.00 0.02 0.00 35 1005.6
20260501191516 61 270 1.7 7.0 0.00 0.02 0.00 38 1005.7
20260501190050 62 309 0.9 7.8 0.00 0.04 0.00 41 1005.7
20260501184525 61 360 0.0 5.2 0.00 0.04 0.00 43 1005.7
20260501183104 59 78 0.0 6.1 0.00 0.04 0.00 46 1005.7
20260501181536 58 316 0.9 5.2 0.00 0.04 0.00 48 1005.8
20260501180013 60 24 0.0 3.5 0.00 0.09 0.00 46 1005.9
20260501174548 58 169 0.0 4.3 0.00 0.09 0.00 49 1005.9
20260501173057 58 281 0.9 6.1 0.00 0.09 0.00 50 1005.8
20260501171522 57 268 0.9 6.1 0.00 0.09 0.00 51 1005.9
20260501170114 56 355 1.7 7.8 0.00 0.15 0.00 51 1006.0
20260501164540 56 299 0.9 7.8 0.00 0.15 0.00 53 1006.1
20260501163010 55 259 0.0 3.5 0.00 0.15 0.00 56 1006.3
20260501161553 54 46 0.0 3.5 0.00 0.15 0.00 60 1006.5
20260501160034 54 315 0.0 0.0 0.00 0.17 0.00 61 1006.7
20260501154510 54 61 0.0 0.0 0.00 0.17 0.00 61 1006.7
20260501153043 52 145 0.0 0.0 0.00 0.17 0.00 65 1006.9
20260501151517 51 256 0.0 2.6 0.00 0.17 0.00 71 1007.1
20260501150053 50 335 0.0 3.5 0.00 0.17 0.00 72 1007.0
20260501144539 50 337 0.0 2.6 0.00 0.17 0.00 72 1007.0
20260501143015 51 223 0.0 3.5 0.00 0.17 0.00 72 1006.9
20260501141557 51 54 0.0 3.5 0.00 0.17 0.00 72 1006.9
20260501140045 50 309 0.0 3.5 0.00 0.18 0.00 68 1006.9
20260501134502 50 240 0.9 6.1 0.00 0.18 0.00 72 1006.9